Location: Bami�res
(50.3350°N, 1.9715°E)
Time: 18:17:36
(UTC+00:00)

Daily predictions for brighter satellites

Satellite Brightness Start Highest point End
(mag) Time Altitude Azimuth Time Altitude Azimuth Time Altitude Azimuth
SPOT 5 3.4 20:44:20 10° SE 20:49:01 45° ENE 20:53:30 10° N
Landsat 7 4.3 20:44:39 10° S 20:49:22 62° WSW 20:54:07 10° NNW
Cosmos 1486 Rocket 4.1 20:46:28 10° NNW 20:51:42 69° ENE 20:56:53 10° SSE
SPOT 3 Rocket 4.1 20:48:45 10° S 20:53:52 60° WSW 20:59:03 10° NNW
SJ 16-02 3.7 20:54:24 10° NNE 20:56:14 12° NE 20:58:04 10° ENE
Cosmos 1802 Rocket 4.3 20:53:13 10° NNW 20:59:30 72° W 21:05:51 10° S
Cosmos 1867 3.9 20:55:04 10° NW 21:00:30 65° SW 21:05:55 10° SSE
Cosmos 2219 Rocket 2.2 20:55:37 10° SSW 21:01:18 83° ESE 21:07:00 10° NNE
Resurs 01 Rocket 2.9 20:58:42 10° SSW 21:02:48 37° W 21:06:55 10° NNW
Cosmos 1544 Rocket 4.5 20:59:53 10° NNW 21:04:11 49° W 21:08:26 10° SSW
FALCON 9 DEB 3.1 21:02:25 10° WSW 21:05:33 74° NNW 21:08:41 10° ENE
Cosmos 405 3.6 21:03:48 10° NNW 21:07:10 52° W 21:10:31 10° S
Cosmos 1606 Rocket 4.3 21:04:24 10° N 21:08:39 41° ENE 21:12:47 10° SE
ERS-1 Rocket 3.1 21:04:02 10° SSE 21:09:03 69° ENE 21:14:04 10° N
Cosmos 1354 Rocket 4.5 21:06:03 10° NNW 21:11:18 54° ENE 21:16:26 10° SE
X-37B 2.1 21:09:47 10° SSW 21:12:06 19° SSE 21:14:26 10° ESE
FALCON 9 DEB 3.5 21:11:21 10° W 21:14:26 60° N 21:17:30 10° ENE
SL-23 DEB 4.3 21:13:36 10° WNW 21:17:23 84° SSW 21:23:46 10° ESE
Cosmos 1346 Rocket 3.2 21:14:45 10° S 21:18:36 46° E 21:22:29 10° NNE
Geosat 4.2 21:14:16 10° SE 21:19:14 71° NE 21:24:16 10° NNW
Cosmos 2333 Rocket 2.7 21:13:51 10° SW 21:19:33 68° WNW 21:25:17 10° NNE
Cosmos 1455 3.3 21:16:09 10° N 21:19:35 30° ENE 21:22:38 12° SE
Cosmos 1025 Rocket 4.3 21:18:42 10° SW 21:22:50 42° WNW 21:26:59 10° N
JB-3 4.4 21:18:48 10° NNE 21:22:50 86° WNW 21:26:56 10° SSW
Cosmos 2228 3.1 21:18:31 10° N 21:22:56 67° ENE 21:27:02 12° SSE
H-2A R/B 4.4 21:19:54 10° NNE 21:23:32 30° E 21:26:45 12° SSE
CZ-2C R/B 4.3 21:18:55 10° N 21:23:41 66° WNW 21:28:23 10° SSW
Spot 2 Rocket 3.9 21:20:05 10° S 21:25:06 64° WSW 21:30:11 10° NNW
FALCON 9 DEB 3.6 21:23:28 10° W 21:26:33 56° N 21:29:37 10° ENE
FALCON 9 DEB 3.5 21:25:01 10° W 21:28:06 59° NNW 21:31:11 10° ENE
Cosmos 2237 Rocket 2.5 21:23:20 10° S 21:28:38 45° ESE 21:33:59 10° NE
Cosmos 2360 Rocket 4.2 21:23:41 10° WSW 21:28:46 33° NW 21:33:52 10° NNE
Cosmos 1340 4.0 21:25:55 10° SW 21:29:30 41° WNW 21:33:07 10° N
SL-16 R/B 3.7 21:26:39 11° SE 21:29:59 18° E 21:33:44 10° ENE
SL-4 R/B 1.9 21:26:53 10° SW 21:31:04 60° SSE 21:34:55 10° ENE
Cosmos 2233 Rocket 4.1 21:25:48 10° N 21:31:59 84° W 21:38:12 10° S
Cosmos 1300 3.8 21:29:16 10° NNW 21:32:52 40° W 21:36:26 10° SSW
Cosmos 1607 4.1 21:26:34 10° NW 21:33:00 75° SW 21:38:39 13° SSE
Cosmos 2369 Rocket 4.1 21:28:35 10° NNW 21:33:00 22° NE 21:37:25 10° E
Cosmos 2123 Rocket 4.5 21:29:02 10° SSW 21:35:18 65° WNW 21:41:38 10° N
ARIANE 5 R/B 3.3 21:33:58 10° S 21:38:20 51° W 21:42:46 10° NNW
Cosmos 1626 4.5 21:36:16 10° SW 21:39:18 23° WNW 21:42:21 10° NNW
Meteor 2-10 Rocket 3.6 21:37:58 10° NNW 21:43:00 72° W 21:47:42 11° S
Lacrosse 5 rocket 3.0 21:40:58 10° WNW 21:44:15 32° NNW 21:47:31 10° NE
Meteor 2-5 Rocket 4.2 21:39:57 10° SSW 21:45:28 64° WNW 21:51:08 10° N
Cosmos 1447 Rocket 4.5 21:39:41 10° S 21:45:52 79° E 21:52:02 10° NNE
USA 267 4.1 21:41:30 10° E 21:47:47 52° N 21:54:05 10° WNW
GENESIS II 4.5 21:47:52 10° SW 21:51:46 72° NW 21:55:40 10° NE
FALCON 9 DEB 3.8 21:48:47 10° WNW 21:52:10 55° N 21:55:32 10° E
Cosmos 1503 Rocket 4.3 21:47:13 10° NNW 21:52:35 68° WSW 21:57:02 15° S
ATLAS CENTAUR R/B 3.8 21:51:59 11° S 21:56:12 38° ESE 22:06:10 10° NE
Terra 2.2 21:55:24 13° S 21:59:34 62° WSW 22:04:19 10° NNW
Meteor 1-24 Rocket 4.2 21:55:35 10° SSW 22:00:55 59° WNW 22:06:30 10° N
Cosmos 2278 Rocket 2.9 21:55:40 10° NW 22:01:04 47° WSW 22:05:45 14° S
Cosmos 1943 Rocket 2.7 22:02:42 10° NNW 22:08:05 51° NE 22:12:41 14° SE
Cosmos 2297 4.0 22:02:49 10° NNW 22:08:27 62° ENE 22:12:58 16° SE
Cosmos 724 4.4 22:05:50 10° NW 22:12:03 85° SW 22:16:45 18° SE
COSMOS 2428 4.0 22:07:21 10° WSW 22:12:47 42° NW 22:18:16 10° NNE
Cosmos 389 Rocket 4.2 22:13:23 10° NW 22:16:18 26° W 22:19:05 11° SSW
Cosmos 192 4.3 22:12:09 10° SSW 22:17:04 83° ESE 22:22:01 10° NNE
Lacrosse 4 Rocket 4.1 22:15:45 10° N 22:17:50 13° NNE 22:19:54 10° ENE
Cosmos 1184 Rocket 2.7 22:20:41 20° SSW 22:22:48 81° W 22:26:03 10° N
SPOT 5 4.5 22:23:05 10° SSW 22:27:16 27° W 22:31:18 10° NW
NOSS 0 Rocket 4.4 22:21:34 10° SW 22:27:43 63° NW 22:33:57 10° NNE
Cosmos 1464 Rocket 4.1 22:21:23 10° N 22:27:48 85° W 22:32:40 18° S
Cosmos 1812 Rocket 4.4 22:23:54 10° N 22:28:00 38° ENE 22:30:41 19° SE
ATLAS 3B R/B 4.1 22:23:40 10° W 22:29:54 41° NNW 22:36:24 10° NE
Cosmos 1777 Rocket 4.1 22:27:08 10° NNW 22:32:26 72° WSW 22:35:58 21° S
Cosmos 1441 Rocket 3.1 22:31:15 22° S 22:33:39 84° E 22:37:26 10° NNE
USA 229 DEB 4.3 22:30:08 19° SSE 22:33:46 33° ESE 22:39:42 10° NE
USA 229 4.3 22:30:18 19° SSE 22:33:53 33° ESE 22:39:48 10° NE
COBE Rocket 4.3 22:32:01 20° SE 22:35:19 56° ENE 22:40:03 10° N
SJ 16-02 1.4 22:31:18 10° NNW 22:35:42 69° ENE 22:38:21 23° SE
NOSS 3-1 (C) 3.5 22:35:28 17° S 22:39:28 49° ESE 22:45:30 10° NE
Cosmos 2058 Rocket 3.6 22:36:14 10° NNW 22:40:32 51° W 22:43:26 19° SSW
Cosmos 1980 4.3 22:35:05 10° SW 22:40:41 57° NW 22:46:19 10° NNE
FALCON 9 DEB 3.8 22:38:24 10° WNW 22:41:29 49° N 22:44:33 10° E
GEOS 3 Rocket 4.0 22:40:04 12° ESE 22:44:58 65° NE 22:50:16 10° NW
Okean 1-7 Rocket 3.6 22:42:02 20° SSW 22:45:06 82° WNW 22:49:33 10° N
X-37B 1.7 22:45:22 10° WSW 22:47:29 27° SSW 22:47:29 27° SSW
Aureole 3 4.3 22:46:06 10° N 22:50:09 48° ENE 22:53:16 21° SE
FALCON 9 DEB 3.6 22:47:14 10° WNW 22:50:17 53° N 22:53:19 10° E
NOSS 2-3 (E) 4.0 22:49:23 25° S 22:51:23 43° ESE 22:55:57 10° NE
NOSS 3-1 (A) 3.9 22:50:45 23° SSE 22:53:29 37° ESE 22:59:09 10° NE
Meteor 1-21 Rocket 4.4 22:49:05 15° SSW 22:53:49 73° WNW 22:59:38 10° N
USA 215 3.9 22:49:06 10° ENE 22:55:00 35° SE 22:58:45 20° S
Cosmos 1455 4.0 22:51:56 10° NW 22:55:02 24° W 22:57:31 13° SW
FALCON 9 DEB 3.5 22:59:21 10° WNW 23:02:26 56° N 23:05:29 10° E
FALCON 9 DEB 3.6 23:00:58 10° WNW 23:04:03 54° N 23:07:07 10° E
CREW DRAGON DEMO-1 DEB 3.6 23:06:10 26° E 23:06:10 26° E 23:07:27 10° ENE
Cosmos 1703 4.1 23:02:32 18° SW 23:05:16 47° WNW 23:09:08 10° N
Cosmos 1869 4.4 23:02:47 10° N 23:06:37 37° ENE 23:08:45 21° SE
Cosmos 2034 Rocket 4.2 23:00:31 10° NNW 23:06:37 63° W 23:10:49 21° SSW
Meteor 1-4 Rocket 3.1 23:03:49 10° NNW 23:07:08 45° W 23:08:33 28° SSW
Cosmos 1898 Rocket 4.0 23:04:33 10° NNW 23:09:43 55° ENE 23:13:23 19° SE
SL-4 R/B 2.1 23:06:37 10° W 23:10:40 73° N 23:14:24 10° E
Spot 4 4.1 23:09:05 24° S 23:11:48 58° W 23:16:32 10° NNW
Cosmos 2237 Rocket 3.5 23:07:35 10° WSW 23:12:50 38° NW 23:18:05 10° NNE
GP-B 3.5 23:08:27 10° N 23:12:50 52° E 23:15:02 27° SSE
SL-16 R/B 2.2 23:08:29 14° SSW 23:13:22 84° WNW 23:19:05 10° NNE
Cosmos 2369 Rocket 2.2 23:12:09 10° NNW 23:17:55 84° ENE 23:21:44 22° SSE
Cosmos 405 Rocket 4.3 23:16:45 18° ESE 23:17:56 21° E 23:20:46 10° NE
Cosmos 1626 Rocket 4.0 23:18:01 21° SSW 23:20:50 58° WNW 23:25:12 10° N
Cosmos-2242 3.1 23:16:27 10° N 23:20:53 76° E 23:23:04 29° SSE
USA 308 4.3 23:22:32 22° SE 23:22:32 22° SE 23:25:35 10° E
ALOS 2 2.6 23:21:22 29° S 23:23:34 73° WSW 23:27:59 10° NNW
Lacrosse 5 rocket 3.0 23:20:49 10° NW 23:24:02 30° N 23:27:16 10° ENE
NOSS 8 (E) 4.0 23:25:24 40° SSW 23:26:21 68° SE 23:29:18 10° NE
FALCON 9 DEB 3.0 23:25:44 10° WNW 23:29:07 61° SSW 23:30:15 36° SE
USA 267 3.4 23:23:56 10° ESE 23:30:29 81° NNE 23:37:03 10° WNW
Cosmos 1602 Rocket 3.9 23:28:09 24° SSW 23:30:46 64° WNW 23:35:14 10° N
Cosmos 468 Rocket 4.3 23:29:10 27° S 23:31:47 52° ESE 23:36:53 10° NNE
NOSS 2-3 (D) 3.5 23:29:39 21° SW 23:32:28 83° SE 23:37:28 10° NE
USA 305 3.8 23:36:40 28° SSE 23:37:04 29° SE 23:40:46 10° ENE
Cosmos 1763 Rocket 3.6 23:35:39 27° S 23:38:15 57° ESE 23:43:19 10° NNE
Cosmos 1758 Rocket 3.5 23:37:04 29° SSW 23:39:19 84° W 23:43:43 10° N
Cosmos 2263 4.2 23:37:28 10° NNW 23:43:11 86° WSW 23:46:47 23° SSE
Tsikada Rocket 4.3 23:39:32 19° SSW 23:44:01 60° WNW 23:50:08 10° N
Cosmos 1408 2.8 23:42:43 35° SSE 23:44:01 57° E 23:47:41 10° NNE
NOSS 2-3 (C) 3.8 23:45:41 15° SW 23:49:10 73° NW 23:54:17 10° NE
Cosmos 2221 3.5 23:46:33 10° N 23:50:35 38° ENE 23:53:10 19° SE
CZ-2D R/B 4.5 23:50:38 10° ENE 23:51:34 10° E 23:52:31 10° E
Cosmos 1943 Rocket 3.2 23:46:48 10° NW 23:51:37 31° WSW 23:54:11 21° SSW
